Current Version              Previous Version:    01  02  03  04  05  06  07  08  09  10  11  12  13  14  15  16  17  18  19  20  21  22  23  24  25  26  27  28  29  30  
   31  32  33  34  35  36  37  38  39  40  41  42  43  44  45  46  47  48  49  50  51  52  53  54  55  56  57  58  59  60  

[Printable]
808
ASUS44 KLUB 242110
RWRTX
WEST TEXAS WEATHER ROUNDUP
NATIONAL WEATHER SERVICE LUBBOCK TX
400 PM CDT THU APR 24 2014

NOTE: "FAIR" INDICATES FEW OR NO CLOUDS BELOW 12,000 FEET WITH NO
SIGNIFICANT WEATHER AND/OR OBSTRUCTIONS TO VISIBILITY.

TXZ004-006>008-010-012-014-016-OKZ002-242200-
TEXAS PANHANDLE/OKLAHOMA PANHANDLE

CITY           SKY/WX    TMP DP  RH WIND       PRES   REMARKS
AMARILLO       SUNNY     71  17  12 NW12      29.99F
BORGER         SUNNY     71  17  12 W9G20     29.96F
CANADIAN       SUNNY     73  23  15 N15G23    29.91F
DALHART        MOSUNNY   68  17  14 VRB3G18   30.00F
DUMAS          SUNNY     68  20  16 NW10G16   29.98F
GUYMON         SUNNY     70  21  15 NW14G20   29.94F
HEREFORD       SUNNY     72  17  12 NW13G18   30.01F
PAMPA          SUNNY     70  20  15 N14G22    29.97S
PERRYTON       SUNNY     71  23  16 NW7G23    29.93F
$$

TXZ026-029-035-045-048-242200-
SOUTHERN PANHANDLE/SOUTH PLAINS/ROLLING PLAINS

CITY           SKY/WX    TMP DP  RH WIND       PRES   REMARKS
CHILDRESS      SUNNY     76  32  20 NW16G30   29.93F
SEMINOLE       SUNNY     76  28  17 NE8       30.01F
LUBBOCK        MOSUNNY   76  23  14 NW15      29.99F
PLAINVIEW      SUNNY     72  22  15 NW9G18    29.98F
SNYDER         SUNNY     77  32  19 NW13G20   29.96F
$$

TXZ052-054-060>062-072-078-127-140-154-169-242200-
PERMIAN BASIN/CONCHO VALLEY/BIG COUNTRY/EDWARDS PLATEAU

CITY           SKY/WX    TMP DP  RH WIND       PRES   REMARKS
ABILENE        SUNNY     82  32  16 NW24G30   29.91F
BIG SPRING     SUNNY     82  28  14 N15G21    29.98F
BRADY          SUNNY     84  30  14 NW10      29.90F
BROWNWOOD      SUNNY     82  36  18 NW18G24   29.89F
JUNCTION       MOSUNNY   90  20   7 N10G24    29.87F
MIDLAND        SUNNY     80  29  15 NW9G24    29.98F
ODESSA         SUNNY     79  25  13 MISG      29.99F
SAN ANGELO     SUNNY     85  27  12 N10G21    29.92S
SONORA         SUNNY     86  23  10 N12       29.92F HAZE
SWEETWATER     SUNNY     78  30  16 NW10G21   29.97F
WINK           SUNNY     82  25  12 VRB6      29.97F
$$

TXZ055-058-074-075-080-082-242200-
FAR WEST/SOUTHWEST MOUNTAINS/TRANS PECOS

CITY           SKY/WX    TMP DP  RH WIND       PRES   REMARKS
ALPINE         SUNNY     81  19  10 E14G21    30.09F
DRYDEN           N/A     93  15   6 NW8G20    29.91F
EL PASO        MOSUNNY   79  11   7 VRB3      30.01F
FORT STOCKTON  SUNNY     82  15   8 N8        29.99F
GUADALUPE PASS SUNNY     77  13   9 SW16G23   30.10F
MARFA          SUNNY     77  19  11 S5        30.08F
PECOS          SUNNY     81  28  15 N3        29.98F
PRESIDIO       FAIR      89  18   7 W10G18    29.93F
$$

TXZ014-016-019-021>030-083-242200
TEXAS TECH WEST TEXAS MESONET/TEXAS PANHANDLE/NORTHERN SOUTH PLAINS

CITY           SKY/WX    TMP DP  RH WIND       PRES   REMARKS
ABERNATHY 5ENE   N/A     74  22  14 NW14      29.99F
AMARILLO 9NNE    N/A     72  19  13 W9        29.97F
AMARILLO 7SSE    N/A     71  19  13 NW8       29.99F
AMHERST 1NE      N/A     71  18  13 NW8       30.01F
BOOTLEG 11WNW    N/A     68  18  14 NW7       30.04F
CANADIAN 6E      N/A     72  26  17 NW10      29.91S
CAPROCK CYN SP   N/A     74  21  13 W14       29.96F
CHILDRESS 2NNE   N/A     75  30  18 NW15      29.92F
CLARENDON 2WSW   N/A     73  23  15 NW15      29.96S
CLAUDE 12SW      N/A     73  20  13 W12       29.98F
DIMMITT 2NE      N/A     71  19  14 W7        30.01F
FLOYDADA 2NNE    N/A     74  20  13 N14       29.97F
FRIONA 2NE       N/A     70  15  12 NW6       30.02F
GOODLETT 3W      N/A     77  33  20 W14       29.91S
HART 3N          N/A     71  23  16 W12       30.01S
HEREFORD 2NW     N/A     70  20  15 NW8       30.00F
MCLEAN 1E        N/A     71  26  18 N16G25    29.93F
MEMPHIS 1NE      N/A     75  28  17 NW15      29.93S
MULESHOE 2SSW    N/A     72  18  12 NW7       30.02S
OLTON 6S         N/A     72  21  14 W10       30.00F
PALO DURO SP     N/A     73  20  13 NW8       29.99F
PAMPA 2E         N/A     70  21  16 NW18      29.96S
PLAINVIEW 1S     N/A     72  22  15 NW7       29.98F
SILVERTON 7ESE   N/A     73  21  14 NW16      29.97F
TULIA 2ENE       N/A     72  20  14 NW12      29.98F
TURKEY 2WSW      N/A     75  22  13 NW16G26   29.94F
UMBARGER 3NNE    N/A     70  21  15 NW7       30.00F
$$

TXZ033>036-039>041-045>048-242200
TEXAS TECH WEST TEXAS MESONET/SOUTH PLAINS

CITY           SKY/WX    TMP DP  RH WIND       PRES   REMARKS
AIKEN 3WSW       N/A     72  24  17 NW9       29.99F
ANDREWS 2NE      N/A     78  24  14 N7        30.00F
ANTON 6SSW       N/A     74  24  15 NW13      30.00F
BROWNFIELD 2S    N/A     73  27  18 N8        30.00F
DENVR CTY 7WNW   N/A     73  25  16 NW8       30.02F
GAIL 2ESE        N/A     78  31  18 NW7       29.96F
LAMESA 2SE       N/A     77  30  18 N10       29.99F
LEVELLAND 4S     N/A     74  19  12 W8        30.00F
LUBBOCK 3WNW     N/A     75  22  14 W10       29.99F
MORTON 1ENE      N/A     72  19  13 N6        30.01F
ODONNELL 1N      N/A     76  24  14 NW10      29.98F
PLAINS 3N        N/A     73  22  14 W2        30.02F
RALLS 1SE        N/A     75  23  14 NW14      29.98F
REESE CENTER     N/A     74  20  12 NW13      29.99F
SEAGRAVES 1SW    N/A     74  27  17 NW5       30.01F
SEMINOLE 2NNE    N/A     75  26  16 NW3       30.00F
SLATON 2NE       N/A     76  20  12 NW9       29.99S
SNYDER 3E        N/A     80  31  17 NW16G28   29.94F
SUNDOWN 8SW      N/A     75  22  13 N10       30.01F
TAHOKA 3NNE      N/A     76  23  13 N13       29.98F
WOLFFORTH 6SSW   N/A     74  21  13 NW9       30.00F
$$

TXZ031-032-036>038-042>044-242200-
TEXAS TECH WEST TEXAS MESONET/ROLLING PLAINS

CITY           SKY/WX    TMP DP  RH WIND       PRES   REMARKS
ASPERMONT 3NE    N/A     80  33  18 NW13      29.91F
FLUVANNA 3WNW    N/A     77  27  15 N14       29.96F
GRAHAM 5SSW      N/A     77  24  13 N13       29.97F
GUTHRIE 10WSW    N/A     78  27  15 NW16G28   29.92F
HASKELL 1NW      N/A     77  37  23 N14G24    29.90F
JAYTON 1SSE      N/A     80  29  15 NW14      29.92F
KNOX CITY 3NW    N/A     80  29  15 NW15G28   29.91S
LK A HENRY 1NW   N/A     80  28  15 N10       29.94F
NORTHFIELD 1S    N/A     78  26  14 NW10G20   29.93F
ODELL 4ENE       N/A     78  33  19 N15       29.90S
PADUCAH 10SW     N/A     77  29  17 NW15      29.92F
POST 1NE         N/A     78  23  13 NW12      29.95F
RRING SPRGS 3N   N/A     76  24  14 NW15      29.95F
SEYMOUR 3NW      N/A     78  37  22 NW15      29.89S
SPUR 1W          N/A     78  22  12 N12       29.93F
WEINERT 2NNE     N/A     79  35  21 NW14      29.90F
WHITE RVR 6NE    N/A     77  23  13 N13       29.95F
$$

TXZ052-054-060>062-072-078-127-140-154-169-242200-
TEXAS TECH WEST TEXAS MESONET/PERMIAN BASIN/
CONCHO VALLEY/BIG COUNTRY/EDWARDS PLATEAU

CITY           SKY/WX    TMP DP  RH WIND       PRES   REMARKS
COYANOSA 2N      N/A     81  24  12 N1        29.98S
JUNCTION 1SSW    N/A     90  27  10 NW7       29.88F
MERTZON 3NNE     N/A     83  28  13 N12       29.94F
SAN ANGELO 7NW   N/A     83  25  12 NW13      29.92F
STRLNG CT 4WSW   N/A     81  31  16 N13       29.95F
ST LAWRNCE 5SW   N/A     80  24  12 NW16      29.96F
SWEETWATR 11SW   N/A     80  32  17 NW17      29.95F
WALL 1E          N/A     83  27  13 NW17      29.92F
$$

TXZ055-058-074-075-080-082-242200-
TEXAS TECH WEST TEXAS MESONET/FAR WEST/SOUTHWEST MOUNTAINS/TRANS PECOS

CITY           SKY/WX    TMP DP  RH WIND       PRES   REMARKS
PRSMN GAP BBNP   N/A     92  18   6 W14       29.91F
$$